Location: Lane
(33.5226°N, 79.8788°W)
Time: 10:44:46
(UTC+00:00)

Altair - Pass Details

Date: 09 October 2022
Orbit: 1501 x 1682 km, 47.2° (Epoch: 30 November)

Event Time Altitude Azimuth Distance (km) Brightness Sun altitude
Rises 09:57:10 0° 267° (W) 4,737 - -18.0°
Reaches altitude 10° 10:00:27 10° 274° (W) 3,779 - -17.3°
Exits shadow 10:03:10 20° 283° (WNW) 3,059 8.5 -16.7°
Maximum altitude 10:09:30 43° 343° (NNW) 2,155 8.1 -15.4°
Drops below altitude 10° 10:18:54 10° 53° (NE) 3,912 10.5 -13.5°
Sets 10:22:23 0° 60° (ENE) 4,916 11.3 -12.7°
